Regional Weather Roundup
Issued by NWS San Diego, CA

Home | Current Version | Previous Version | Text Only | Print | Product List | Glossary On
Versions: 1 2 3 4 5 6 7 8 9 10 11 12 13 14 15 16 17 18 19 20 21 22 23 24 25 26 27 28 29 30 31 32 33 34 35 36 37 38 39 40 41 42 43 44 45 46 47 48 49 50
000
ASUS46 KSGX 220610
RWRSGX

SAN DIEGO HOURLY WEATHER ROUNDUP
NATIONAL WEATHER SERVICE SAN DIEGO CA
1100 PM PDT TUE OCT 21 2014

NOTE: "FAIR" INDICATES FEW OR NO CLOUDS BELOW 12,000 FEET WITH NO
SIGNIFICANT WEATHER AND/OR OBSTRUCTIONS TO VISIBILITY.

CAZ042-043-060-061-PZZ750-775-220700-

GREATER SAN DIEGO AREA

CITY           SKY/WX    TMP DP  RH WIND       PRES   REMARKS
LINDBERGH FLD  PTCLDY    67  61  81 CALM      29.90S
POINT LOMA       N/A     65  62  89 N5          N/A
NATIONAL CITY    N/A     66  61  84 CALM      29.89S
CHULA VISTA      N/A     64  61  91 CALM      29.83R
IMPERIAL BEACH MOCLDY    59  57  93 E3        29.89S
BROWN FIELD    CLEAR     62  60  93 S3        29.89S
MIRAMAR MCAS   PTCLDY    61  57  87 NE3       29.89S
MONTGOMERY FLD CLEAR     64  60  87 CALM      29.89S

$$

NORTH SAN DIEGO COUNTY

CITY           SKY/WX    TMP DP  RH WIND       PRES   REMARKS
CAMP PENDLETON MOCLDY    62  57  83 E3        29.88S
OCEANSIDE AP   PTCLDY    57  56  96 CALM      29.88R
OCEANSIDE HBR    N/A     64  62  92 NE1       29.91R
VISTA            N/A     64  59  86 CALM      29.87R
CARLSBAD       MOCLDY    67  61  81 CALM      29.88S
DEL MAR          N/A     64  62  94 CALM      29.91S
LA JOLLA SCRIP   N/A     65  63  93 CALM      29.86S
FALLBROOK        N/A     62  62 100 CALM      29.88R
ESCONDIDO        N/A     62  58  86 CALM      29.91S
SAN MARCOS       N/A     63  59  87 CALM      29.86F
POWAY            N/A     58  55  88 CALM      29.90R

$$

EAST SAN DIEGO COUNTY

CITY           SKY/WX    TMP DP  RH WIND       PRES   REMARKS
RAMONA         CLEAR     52  49  89 CALM      29.91S
SANTEE LAKES     N/A     59  56  91 CALM      29.90S
LA MESA          N/A     63  61  92 CALM      29.83R
JAMUL            N/A     59  57  91 CALM      29.88S
DESCANSO N       N/A     53  34  49 E2        29.81R
MT. LAGUNA OBS   N/A     58   0   9 CALM      29.68S
CAMPO            N/A     51  46  83 NE7       29.94R

$$

ORANGE COUNTY AND THE LOS ANGELES BASIN

CITY           SKY/WX    TMP DP  RH WIND       PRES   REMARKS
JOHN WAYNE AP  PTCLDY    69  63  81 CALM      29.87S
LAKE FOREST FR   N/A     61  53  74 CALM      29.79S
SANTA ANA        N/A     64  59  85 CALM      29.83R
HUNTINGTON BCH   N/A     63  62  94 CALM      29.90R
LOS ALAMITOS   FAIR      62  60  93 W1        29.88R
FULLERTON      CLEAR     65  57  75 CALM      29.87S
LONG BEACH     CLEAR     67  61  81 CALM      29.88R
L.A. AP        CLEAR     67  62  84 SE5       29.87S
L.A. DOWNTOWN  CLEAR     66  61  84 CALM      29.87R

$$

THE INLAND EMPIRE

CITY           SKY/WX    TMP DP  RH WIND       PRES   REMARKS
CORONA         CLEAR     56  52  86 CALM      29.89S
CHINO          CLEAR     59  55  87 CALM      29.90S
ONTARIO        PTCLDY    65  55  70 CALM      29.89S
RIVERSIDE AP   CLEAR     65  57  75 CALM      29.89S
RIV CYN CREST    N/A     65  63  95 S1        29.87S
MORENO VALLEY    N/A     62  58  85 CALM      29.09S
MARCH ARB      CLEAR     58  53  83 W1        29.91S
HORSETHIEF CYN   N/A     62  45  54 CALM      29.92S
PERRIS           N/A     64  58  80 CALM      29.87S
MENIFEE          N/A     64  57  78 CALM      29.95S
HEMET EAST       N/A     63  43  47 CALM      29.88S
FRENCH VALLEY  FAIR      63  55  77 CALM      29.91F
TEMECULA         N/A     61  57  85 CALM      29.87S

$$

SAN BERNARDINO AND RIVERSIDE COUNTY MOUNTAINS

CITY           SKY/WX    TMP DP  RH WIND       PRES   REMARKS
BIG BEAR AP    CLEAR     36  10  35 CALM      30.14F
PINE COVE        N/A     56   4  12 N3        29.83S

$$

SOUTHERN DESERT INCLUDING THE COACHELLA VALLEY

CITY           SKY/WX    TMP DP  RH WIND       PRES   REMARKS
PALM SPRINGS   CLEAR     77  41  27 CALM      29.83R
THOUSAND PALMS   N/A     79  47  32 W9        29.77S
PALM DESERT      N/A     73  51  45 CALM      30.62S
THERMAL        CLEAR     72  48  42 NE3       29.77S
BLYTHE         CLEAR     76  41  28 NE3       29.80R
IMPERIAL AP    CLEAR     75  50  41 W8        29.78R
EL CENTRO NAS  PTCLDY    77  45  32 W8        29.79R
YUMA AZ        PTCLDY    79  61  53 SE5       29.80R

$$

UPPER DESERT

CITY           SKY/WX    TMP DP  RH WIND       PRES   REMARKS
VICTORVILLE AP CLEAR     57  34  41 SW5       29.98R
HESPERIA         N/A     59  39  46 CALM      30.02R
APPLE VALLEY     N/A     61  32  34 CALM      30.04S
PALMDALE       CLEAR     60  36  40 NW9       29.96R
LANCASTER      CLEAR     59  41  51 W14       29.96R
EDWARDS AFB    CLEAR     57  41  56 SW7       29.93S
DAGGETT        CLEAR     65  34  31 NW13      29.92R
29 PALMS N     CLEAR     68  31  25 W7        29.96R
NEEDLES        PTCLDY    76  37  24 SW3       29.83R

$$

REGIONAL REPORTS

CITY           SKY/WX    TMP DP  RH WIND       PRES   REMARKS
SANTA BARBARA  CLEAR     62  56  80 CALM      29.87R
SANDBERG       CLEAR     52  41  66 N16G29    30.05R
MT. WILSON       N/A     55  21  26 N2          N/A
LAS VEGAS NV   PTCLDY    70  23  17 S7        29.85R
PHOENIX AZ     CLEAR     77  55  46 E5        29.83S
TIJUANA        CLEAR     63  59  88 CALM      29.92R

$$

OFFSHORE ISLANDS

CITY           SKY/WX    TMP DP  RH WIND       PRES   REMARKS
CATALINA ARPT  CLEAR     64  45  49 NE3       29.92R
SAN NICOLAS IS CLEAR    N/A N/A N/A NW22      29.88S

$$

MARINE AND OFFSHORE BUOY REPORTS

STATION/POSITION SKY/WX   TEMP    WIND        PRES    SWELL
                          AIR SEA DIR/SP/G            HT/PER/DIR
                          (F)     (DEG/KT/KT) (MB)    (FT/S/D)
TANNER BANKS               67 69  320/ 19/ 23 1012.4R  11/310/15
S CLEMENTE BASIN           69 71  320/  4/  6 1012.0R   8/310/14
SAN NICOLAS IS.               68                N/A    10/300/15
SO. S. ROSA ISLA           65 67  330/ 25/ 29 1011.5R   8/15
W. S. BARBARA CH           64 63  330/ 25/ 31 1011.3R  11/320/15
M. S. BARBARA CH           68 65  320/  6/  8 1011.1R
S. MONICA BASIN            69 71  110/  4/  6 1011.0R   7/250/10
S PEDRO CHANNEL               71                N/A     5/270/15
DANA POINT                    70                N/A     3/280/13
CMP PENDLETON NS              70                N/A     2/260/11
OCEANSIDE OFFSHR              71                N/A     3/270/11
TORREY PINES OTR              72                N/A     5/270/15
LA JOLLA 1                 68 71   70/  3/  5 1012.1S
MISSION BAY BUOY              72                N/A     5/270/15
SAN DIEGO BAY                 74              1012.6F
POINT LOMA SOUTH              72                N/A     7/280/17

$$




USA.gov is the U.S. government's official web portal to all federal, state and local government web resources and services.